Location: Jodlow
(50.1500°N, 16.7500°E)
Time: 14:26:08
(UTC+02:00)

O/OREOS (USA 219) - Pass Details

Date: 06 March 2024
Orbit: 621 x 646 km, 72.0° (Epoch: 22 May)

Event Time Altitude Azimuth Distance (km) Brightness Sun altitude
Exits shadow 04:17:48 39° 199° (SSW) 965 ? -21.1°
Maximum altitude 04:19:29 83° 116° (ESE) 656 ? -20.8°
Drops below altitude 10° 04:24:07 10° 29° (NNE) 2,055 ? -20.1°
Sets 04:26:24 0° 29° (NNE) 2,970 ? -19.7°
